EW9523 Weather Reports


Display with metric or nautical units.
time (UTC)temp
F
wind
direction
speed
MPH
gust
MPH
rain 1hr
in
rain 24hr
in
rain mn
in
humidity
%
barometer
mb
20260508181405 71 318 3.0 10.0 0.00 0.00 0.00 62 1016.8
20260508180406 70 261 3.0 9.0 0.00 0.00 0.00 64 1016.9
20260508175406 69 249 4.0 10.0 0.00 0.00 0.00 64 1016.9
20260508174845 69 227 4.0 11.0 0.00 0.00 0.00 66 1017.0
20260508173404 67 316 4.0 12.0 0.00 0.00 0.00 67 1016.9
20260508172402 67 264 3.0 10.0 0.00 0.00 0.00 70 1016.9
20260508171400 65 345 3.0 7.0 0.00 0.00 0.00 71 1017.0
20260508170358 65 5 3.0 9.0 0.00 0.00 0.00 73 1017.2
20260508165359 63 310 3.0 7.0 0.00 0.00 0.00 74 1017.1
20260508164359 62 66 3.0 7.0 0.00 0.00 0.00 75 1017.0
20260508163351 62 342 3.0 7.0 0.00 0.00 0.00 75 1017.0
20260508162836 61 31 3.0 8.0 0.00 0.00 0.00 77 1017.0
20260508161824 60 13 4.0 8.0 0.00 0.00 0.00 77 1017.1
20260508160343 59 344 3.0 7.0 0.00 0.00 0.00 79 1017.0
20260508155340 58 0 4.0 10.0 0.00 0.00 0.00 80 1017.0
20260508154338 57 317 5.0 8.0 0.00 0.00 0.00 82 1017.0
20260508153338 56 12 4.0 10.0 0.00 0.00 0.00 83 1017.0
20260508152336 56 311 4.0 8.0 0.00 0.00 0.00 84 1016.9
20260508151333 55 5 4.0 10.0 0.00 0.00 0.00 85 1016.8
20260508150334 54 336 4.0 9.0 0.00 0.00 0.00 86 1016.8
20260508145332 53 323 3.0 7.0 0.00 0.00 0.00 87 1016.9
20260508144332 53 14 3.0 7.0 0.00 0.00 0.00 89 1016.9
20260508143333 52 355 3.0 9.0 0.00 0.00 0.00 90 1017.0
20260508142331 51 5 2.0 6.0 0.00 0.00 0.00 91 1016.8
20260508141329 51 31 2.0 5.0 0.00 0.00 0.00 93 1016.6
20260508140812 50 327 2.0 7.0 0.00 0.00 0.00 94 1016.6
20260508135328 50 342 1.0 4.0 0.00 0.00 0.00 95 1016.6
20260508134328 49 350 1.0 4.0 0.00 0.00 0.00 95 1016.5
20260508133326 49 355 1.0 4.0 0.00 0.00 0.00 95 1016.3
20260508132312 49 42 2.0 5.0 0.00 0.00 0.00 96 1016.3
20260508131312 48 327 0.0 0.0 0.00 0.00 0.00 95 1016.4
20260508130307 49 327 0.0 0.0 0.00 0.00 0.00 95 1016.2
20260508125743 49 327 0.0 0.0 0.00 0.00 0.00 95 1016.2
20260508124236 49 327 0.0 0.0 0.00 0.00 0.00 95 1016.2
20260508123209 50 327 1.0 3.0 0.00 0.00 0.00 95 1016.2
20260508122209 50 336 1.0 2.0 0.00 0.00 0.00 95 1016.2
20260508122136 50 344 1.0 2.0 0.00 0.00 0.00 95 1016.1
20260508120208 50 340 0.0 3.0 0.00 0.00 0.00 95 1016.1
20260508115201 50 271 0.0 0.0 0.00 0.00 0.00 95 1016.3
20260508114148 51 225 0.0 0.0 0.00 0.00 0.00 95 1016.3
20260508113145 51 225 0.0 0.0 0.00 0.00 0.00 95 1016.2
20260508112123 51 225 0.0 0.0 0.00 0.00 0.00 95 1016.2
20260508111107 51 225 0.0 1.0 0.00 0.00 0.00 95 1016.4
20260508110041 51 225 0.0 2.0 0.00 0.00 0.00 95 1016.5
20260508105500 52 225 0.0 0.0 0.00 0.00 0.00 95 1016.5
20260508103945 52 225 0.0 0.0 0.00 0.00 0.00 95 1016.6
20260508102945 52 225 0.0 1.0 0.00 0.00 0.00 95 1016.6
20260508101941 52 225 0.0 0.0 0.00 0.00 0.00 95 1016.4
20260508100929 52 225 0.0 2.0 0.00 0.00 0.00 95 1016.4
20260508095925 52 225 0.0 2.0 0.00 0.00 0.00 95 1016.3
20260508094902 52 225 0.0 0.0 0.00 0.00 0.00 95 1016.2
20260508093851 52 225 0.0 1.0 0.00 0.00 0.00 95 1016.2
20260508092830 52 225 1.0 2.0 0.00 0.00 0.00 95 1016.2
20260508091826 52 225 0.0 2.0 0.00 0.00 0.00 95 1016.1
20260508091314 52 210 0.0 2.0 0.00 0.00 0.00 95 1016.0
20260508085824 52 210 0.0 2.0 0.00 0.00 0.00 95 1016.1
20260508084821 52 115 0.0 0.0 0.00 0.00 0.00 95 1016.1
20260508084257 52 115 0.0 0.0 0.00 0.00 0.00 95 1016.1
20260508082820 52 115 0.0 0.0 0.00 0.00 0.00 94 1016.2
20260508081805 52 115 0.0 0.0 0.00 0.00 0.00 95 1016.2
20260508080805 51 115 0.0 0.0 0.00 0.00 0.00 94 1016.3
20260508075807 51 115 0.0 0.0 0.00 0.00 0.00 94 1016.3
20260508074752 51 115 0.0 0.0 0.00 0.00 0.00 93 1016.4
20260508073744 52 115 0.0 0.0 0.00 0.00 0.00 93 1016.3
20260508072734 52 115 0.0 0.0 0.00 0.00 0.00 93 1016.2
20260508071725 52 115 0.0 3.0 0.00 0.00 0.00 93 1016.2
20260508070724 52 146 0.0 0.0 0.00 0.00 0.00 93 1016.2
20260508065707 53 146 0.0 0.0 0.00 0.00 0.00 92 1016.1
20260508064707 53 146 0.0 0.0 0.00 0.00 0.00 92 1016.0
20260508063654 53 146 0.0 0.0 0.00 0.00 0.00 92 1016.1
20260508062640 54 146 0.0 2.0 0.00 0.00 0.00 92 1016.1
20260508061640 54 120 0.0 1.0 0.00 0.00 0.00 91 1016.1
20260508060641 55 133 0.0 2.0 0.00 0.00 0.00 91 1016.0
20260508055626 55 138 0.0 0.0 0.00 0.00 0.00 90 1016.1
20260508054624 56 138 0.0 0.0 0.00 0.00 0.00 90 1016.0
20260508053621 56 126 0.0 0.0 0.00 0.00 0.00 89 1016.0
20260508052618 57 126 0.0 3.0 0.00 0.00 0.00 89 1015.9
20260508051557 57 154 0.0 1.0 0.00 0.00 0.00 89 1015.8
20260508050556 58 132 0.0 1.0 0.00 0.00 0.00 88 1015.8
20260508045552 58 132 0.0 2.0 0.00 0.00 0.00 87 1015.7
20260508045023 59 115 0.0 3.0 0.00 0.00 0.00 87 1015.8
20260508043545 60 101 0.0 2.0 0.00 0.00 0.00 85 1015.8
20260508042544 60 113 0.0 3.0 0.00 0.00 0.00 85 1015.7
20260508041512 61 123 0.0 1.0 0.00 0.00 0.00 83 1015.5
20260508040505 62 127 1.0 3.0 0.00 0.00 0.00 82 1015.4
20260508035955 63 161 0.0 2.0 0.00 0.00 0.00 81 1015.3
20260508034458 64 149 0.0 2.0 0.00 0.00 0.00 80 1015.1
20260508033458 65 107 0.0 2.0 0.00 0.00 0.00 78 1015.1
20260508032940 66 193 1.0 4.0 0.00 0.00 0.00 76 1015.0
20260508031444 67 219 1.0 3.0 0.00 0.00 0.00 75 1014.9
20260508030918 68 191 1.0 6.0 0.00 0.00 0.00 74 1014.7
20260508025918 69 152 2.0 5.0 0.00 0.00 0.00 72 1014.6
20260508024441 70 132 2.0 7.0 0.00 0.00 0.00 71 1014.4
20260508023440 71 154 2.0 6.0 0.00 0.00 0.00 70 1014.4
20260508022907 71 235 2.0 9.0 0.00 0.00 0.00 70 1014.4
20260508021431 72 160 2.0 7.0 0.00 0.00 0.00 70 1014.4
20260508020427 72 146 3.0 7.0 0.00 0.00 0.00 69 1014.5
20260508015908 73 140 4.0 11.0 0.00 0.00 0.00 68 1014.4
20260508014424 74 134 4.0 12.0 0.00 0.00 0.00 67 1014.4
20260508013906 75 150 3.0 10.0 0.00 0.00 0.00 66 1014.5
20260508012420 75 144 3.0 9.0 0.00 0.00 0.00 67 1014.5
20260508011421 76 113 4.0 11.0 0.00 0.00 0.00 67 1014.4
20260508010418 76 90 4.0 11.0 0.00 0.00 0.00 66 1014.5
20260508005418 77 169 3.0 10.0 0.00 0.00 0.00 66 1014.6
20260508004418 77 92 3.0 7.0 0.00 0.00 0.00 66 1014.7
20260508003417 77 184 4.0 10.0 0.00 0.00 0.00 65 1014.6
20260508002417 78 104 3.0 10.0 0.00 0.00 0.00 64 1014.6
20260508001856 78 162 3.0 10.0 0.00 0.00 0.00 64 1014.5
20260508000404 78 167 3.0 10.0 0.00 0.00 0.00 63 1014.4
20260507235401 78 135 3.0 10.0 0.00 0.00 0.00 65 1014.5
20260507234845 78 184 4.0 12.0 0.00 0.00 0.00 65 1014.5
20260507233400 78 126 3.0 10.0 0.00 0.00 0.00 64 1014.5
20260507232400 78 161 3.0 11.0 0.00 0.00 0.00 63 1014.6
20260507231838 78 111 5.0 11.0 0.00 0.00 0.00 64 1014.6
20260507230355 78 107 4.0 12.0 0.00 0.00 0.00 65 1014.7
20260507225355 78 155 4.0 12.0 0.00 0.00 0.00 65 1014.8
20260507225320 78 173 3.0 10.0 0.00 0.00 0.00 65 1015.0
20260507223354 78 132 2.0 9.0 0.00 0.00 0.00 63 1015.1
20260507222353 78 115 3.0 10.0 0.00 0.00 0.00 63 1015.2
20260507221353 78 177 3.0 8.0 0.00 0.00 0.00 62 1015.3
20260507220824 78 152 2.0 11.0 0.00 0.00 0.00 64 1015.5
20260507215344 77 171 2.0 7.0 0.00 0.00 0.00 66 1015.7
20260507214342 76 73 3.0 9.0 0.00 0.00 0.00 67 1015.8
20260507213341 76 136 4.0 9.0 0.00 0.00 0.00 67 1016.0
20260507213308 76 101 4.0 9.0 0.00 0.00 0.00 68 1016.0
20260507211337 75 133 3.0 10.0 0.00 0.00 0.00 68 1016.1
20260507211253 75 123 3.0 9.0 0.00 0.00 0.00 69 1016.2
20260507205809 74 147 3.0 10.0 0.00 0.00 0.00 69 1016.3
20260507204333 73 181 3.0 11.0 0.00 0.00 0.00 71 1016.5
20260507203333 73 153 3.0 9.0 0.00 0.00 0.00 70 1016.5
20260507202333 72 187 4.0 11.0 0.00 0.00 0.00 71 1016.7
20260507201333 72 163 3.0 7.0 0.00 0.00 0.00 71 1016.7
20260507200334 71 173 4.0 10.0 0.00 0.00 0.00 72 1016.7
20260507200307 70 171 3.0 7.0 0.00 0.00 0.00 74 1016.8
20260507194326 70 169 2.0 6.0 0.00 0.00 0.00 73 1017.0
20260507193323 69 219 3.0 10.0 0.00 0.00 0.00 73 1017.0
20260507192805 68 109 2.0 5.0 0.00 0.00 0.00 76 1017.1
20260507191321 67 159 3.0 7.0 0.00 0.00 0.00 76 1017.1
20260507190319 67 181 2.0 6.0 0.00 0.00 0.00 77 1017.2
20260507185319 66 178 3.0 6.0 0.00 0.00 0.00 79 1017.3
20260507184318 65 113 3.0 10.0 0.00 0.00 0.00 80 1017.4
20260507183317 64 259 2.0 7.0 0.00 0.00 0.00 81 1017.7
20260507182312 63 130 3.0 7.0 0.00 0.00 0.00 82 1017.6